BREEZE-KM DEB

基本信息
目录编号:
41719
目录名称:
BREEZE-KM DEB
国际标识:
2015-020G
轨道中心:
EARTH
物体状态:
在轨
发射日期:
2015-03-31 UTC
轨道信息
数据来源: 国际轨道数据
星历时间: 2026-07-12T16:26:25+0800
半长轴: 7738.991km
偏心率: 0.0223153
轨道倾角: 82.488°
近地点辐角: 74.785°
升交点赤经: 216.651°
平近点角: 287.781°
近地点: 1188.156km
远地点: 1533.552km
周期: 112.924分钟
每日圈数: 12.751942
详细信息
发射场:
PKMTR
轨道高度:
LEO
数据来源:
AOE Integration Group
参考系:
TEME
时间系统:
UTC
历元类型:
SGP4
2D轨道图
3D轨道图
轨道高度分析图
轨道倾角分析图
轨道综合分析图
查看轨道综合分析图